Regional Weather Roundup
Issued by NWS

Home | Current Version | Previous Version | Text Only | Print | Product List | Glossary Off
Versions: 1 2 3 4 5 6 7 8 9 10 11 12 13 14 15 16 17 18 19 20 21 22 23 24 25 26 27 28 29 30 31 32 33 34 35 36 37 38 39 40 41 42 43 44 45 46 47 48 49 50

465
ASUS43 KFSD 250010
RWRSD

WEATHER ROUNDUP FOR SOUTH DAKOTA
NATIONAL WEATHER SERVICE SIOUX FALLS SD
700 PM CDT SAT JUN 24 2017

NOTE: "FAIR" INDICATES FEW OR NO CLOUDS BELOW 12,000 FEET WITH NO
SIGNIFICANT WEATHER AND/OR OBSTRUCTIONS TO VISIBILITY.


SDZ001>005-009-010-012>017-250100-
NORTHWEST AND NORTH CENTRAL SOUTH DAKOTA

CITY           SKY/WX    TMP DP  RH WIND       PRES   REMARKS
BUFFALO          N/A     70  28  21 NW22G29   30.21S
FAITH            N/A     70  31  23 N21G28    30.23S
MOBRIDGE       MOSUNNY   67  37  33 N15G25    30.20R
$$

SDZ012>016-024>037-041>051-057-063-072>074-250100-
SOUTHWEST AND SOUTH CENTRAL SOUTH DAKOTA

CITY           SKY/WX    TMP DP  RH WIND       PRES   REMARKS
RAPID CTY ARPT SUNNY     74  29  19 NW23G29   30.25S
PIERRE         SUNNY     70  35  27 N17G28    30.19R
CUSTER         PTSUNNY   63  24  22 NW9       30.34R
ELLSWORTH AFB  MOSUNNY   73  28  19 N22G30    30.25R
PHILIP         SUNNY     75  30  19 N18G29    30.20F
PINE RIDGE     SUNNY     74  36  25 N8        30.25S
SPEARFISH      FAIR      66  32  28 N13G18    30.30S
WINNER         FAIR      76  31  19 N21G28    30.19S
$$

SDZ004>011-016>023-039-040-250100-
NORTHEAST SOUTH DAKOTA

CITY           SKY/WX    TMP DP  RH WIND       PRES   REMARKS
ABERDEEN       CLOUDY    61  44  53 NW20G29   30.19R
WATERTOWN      PTSUNNY   60  41  49 NW22      30.14R
BROOKINGS      SUNNY     63  40  42 NW16G23   30.15R
SISSETON         N/A     61  44  53 NW17      30.12R
$$

SDZ017-020-022-023-036>040-048>070-250100-
SOUTHEAST SOUTH DAKOTA

CITY           SKY/WX    TMP DP  RH WIND       PRES   REMARKS
SIOUX FALLS    MOSUNNY   68  43  40 NW18G31   30.13S
HURON          SUNNY     67  38  34 N20G29    30.16R
CHAMBERLAIN    SUNNY     74  32  21 NW20G26   30.18S
MITCHELL       SUNNY     71  40  32 N21G26    30.16R
YANKTON        SUNNY     73  36  25 NW20G29   30.13S
$$

ABBREVIATIONS USED IN REMARKS
   TC - TEMPERATURE IN CELSIUS
  WCI - WIND CHILL INDEX
   HX - HEAT INDEX
  VSB - VISIBILITY





USA.gov is the U.S. government's official web portal to all federal, state and local government web resources and services.